This is the latest recevied weather packets stored in our database for station/object K9MWD. If no packets are shown the sender has not sent any weather packets the latest 10 day(s).
| Time | Temp. | Humidity | Pressure | Rain* | Wind** | Luminosity | Snow |
|---|---|---|---|---|---|---|---|
| 1788380270 | 36.11° C | 44% | 1012.3 hPa | 0 mm | - | 831 W/m² | - |
| 1788379969 | 36.11° C | 43% | 1012.4 hPa | 0 mm | - | 837 W/m² | - |
| 1788379664 | 36.67° C | 42% | 1012.6 hPa | 0 mm | - | 398 W/m² | - |
| 1788379359 | 36.67° C | 41% | 1012.5 hPa | 0 mm | - | 853 W/m² | - |
| 1788379055 | 36.11° C | 41% | 1012.6 hPa | 0 mm | - | 828 W/m² | - |
| 1788378754 | 36.11° C | 41% | 1012.9 hPa | 0 mm | - | 834 W/m² | - |
| 1788378454 | 36.11° C | 42% | 1012.9 hPa | 0 mm | - | 876 W/m² | - |
| 1788378149 | 36.11° C | 42% | 1012.9 hPa | 0 mm | - | 915 W/m² | - |
| 1788377845 | 36.11° C | 43% | 1012.8 hPa | 0 mm | - | 893 W/m² | - |
| 1788377540 | 36.67° C | 42% | 1013 hPa | 0 mm | - | 862 W/m² | - |
| 1788377239 | 36.67° C | 42% | 1013.3 hPa | 0 mm | - | 866 W/m² | - |
| 1788376938 | 36.11° C | 42% | 1013.2 hPa | 0 mm | - | 889 W/m² | - |
| 1788376638 | 35.56° C | 44% | 1013.2 hPa | 0 mm | - | 869 W/m² | - |
| 1788376333 | 35.56° C | 44% | 1013.4 hPa | 0 mm | - | 866 W/m² | - |
| 1788376028 | 35.56° C | 44% | 1013.6 hPa | 0 mm | - | 867 W/m² | - |
| 1788375728 | 35.56° C | 45% | 1013.4 hPa | 0 mm | - | 873 W/m² | - |
| 1788375424 | 35.56° C | 43% | 1013.5 hPa | 0 mm | - | 874 W/m² | - |
| 1788375121 | 35.56° C | 44% | 1013.8 hPa | 0 mm | - | 876 W/m² | - |
| 1788374821 | 35.56° C | 44% | 1013.7 hPa | 0 mm | - | 883 W/m² | - |
| 1788374516 | 35.56° C | 46% | 1014 hPa | 0 mm | - | 877 W/m² | - |
| 1788374212 | 34.44° C | 47% | 1014 hPa | 0 mm | - | 884 W/m² | - |
| 1788373908 | 35° C | 46% | 1014 hPa | 0 mm | - | 889 W/m² | - |
| 1788373604 | 35° C | 46% | 1014.1 hPa | 0 mm | - | 887 W/m² | - |
| 1788373300 | 35° C | 47% | 1014.1 hPa | 0 mm | - | 891 W/m² | - |
| 1788372996 | 35° C | 48% | 1014.4 hPa | 0 mm | - | 911 W/m² | - |
* Rain latest hour (hover to see other rain measurements)
** Current wind speed in m/s (hover to see current wind gust speed)